STARLINK-34687

Last updated on Tue Aug 26 2025 00:02:05 GMT+0000 (Coordinated Universal Time)

1 64909U 25157F 25237.25299810 .00039321 00000+0 71131-3 0 9996 2 64909 53.1604 189.0894 0001342 83.0274 277.0888 15.49316589 5840
UTC large
Height (km)
Speed (km/s)
/
Latitude / Longitude
Inclination (degrees)
Orbital Period (minutes)
Azimuth
Elevation
Range (km)
Doppler Factor

Next 0 passes for location: London (51.5072 / 0.1276)

Sorry there are no passes over London.